Content
SEND FEEDBACK

Daily
Averages
Monthly
Summary
United States of America

INARAJAN, GUAM


Home > North America > United States > Guam
Elevation: 280 feet     Latitude: 13 18N     Longitude: 144 44E

WEATHER
 
SELECT A DAY
Number of Records: 341,964;   Date Range: 1/1/95 - 7/26/14
 
SHARE

PRINT THIS DATA

[ ← Previous Day ]
WEATHER ALMANAC - JUNE 21, 2013
[ Next Day → ]
[ °C ]   °F
Weather ElementAverageHighLow
Temperature82.2 °F88 °F (1:55 pm)78.4 °F (12:55 am)
Dewpoint77.2 °F78.8 °F (12:40 am)75.2 °F (8:28 pm)
Humidity85.3 %94 % (12:40 am)70 % (11:38 am)
Barometer29.86 in29.90 in (10:41 pm)29.83 in (2:57 pm)
Wind Speed14.9 mph20.7 mph (10:25 am)
Wind Gust23 mph (12:49 am)
Weather ElementAverage
Visibility9.8 mi
Wind DirectionENE (72.4 °)

Weather ElementTotal
Precipitation0.06 in
Cooling Degree Days18.2 (Base 65)
Growing Degree Days33.2 (Base 50)
Averaged from 90 records on June 21, 2013
WEATHER CONDITIONS BREAKOUT
WIND DIRECTION BREAKOUT
WEATHER BY HOUR - JUNE 21, 2013
[ °C ]   °F
Local TimeTemperatureDewpointHumidityBarometerVisibilityWind DirectionWind SpeedGust SpeedPrecipitationEventsConditions
12:29 AM80.6 °F77.0 °F89 %29.86 in9.0 miENE (70°)11.5 mphLight Drizzle
12:40 AM80.6 °F78.8 °F94 %29.86 in8.0 miEast (80°)12.7 mphRainLight Rain
12:42 AM80.6 °F78.8 °F94 %29.86 in10.0 miEast (80°)11.5 mphMostly Cloudy
12:49 AM80.6 °F78.8 °F94 %29.86 in7.0 miENE (70°)18.4 mph23.0 mphRainLight Rain
12:55 AM78.4 °F75.9 °F92 %29.86 in4.0 miEast (80°)11.5 mph23.0 mph0.04 inRainLight Rain
1:03 AM78.8 °F77.0 °F94 %29.86 in10.0 miEast (80°)10.4 mphScattered Clouds
1:12 AM78.8 °F77.0 °F94 %29.86 in10.0 miENE (70°)10.4 mphMostly Cloudy
1:15 AM78.8 °F77.0 °F94 %29.86 in10.0 miENE (70°)10.4 mphMostly Cloudy
1:19 AM78.8 °F77.0 °F94 %29.86 in10.0 miENE (60°)12.7 mphMostly Cloudy
1:21 AM78.8 °F77.0 °F94 %29.85 in10.0 miENE (70°)12.7 mphScattered Clouds
1:55 AM79.5 °F77.2 °F93 %29.84 in10.0 miENE (70°)15.0 mph0.00 inPartly Cloudy
2:16 AM78.8 °F77.0 °F94 %29.84 in10.0 miEast (80°)11.5 mphLight Drizzle
2:21 AM78.8 °F77.0 °F94 %29.84 in10.0 miEast (80°)12.7 mphLight Drizzle
2:26 AM78.8 °F77.0 °F94 %29.84 in10.0 miEast (80°)13.8 mphLight Drizzle
2:28 AM78.8 °F77.0 °F94 %29.84 in10.0 miENE (70°)13.8 mphMostly Cloudy
2:36 AM78.8 °F77.0 °F94 %29.84 in10.0 miENE (60°)16.1 mphMostly Cloudy
2:39 AM78.8 °F77.0 °F94 %29.84 in10.0 miENE (70°)13.8 mphScattered Clouds
2:55 AM79.2 °F77.0 °F93 %29.84 in10.0 miENE (70°)11.5 mph0.00 inScattered Clouds
3:55 AM78.8 °F76.8 °F94 %29.84 in10.0 miENE (70°)11.5 mphPartly Cloudy
4:08 AM78.8 °F77.0 °F94 %29.84 in6.0 miNE (50°)17.3 mph23.0 mphRainLight Rain
4:19 AM78.8 °F77.0 °F94 %29.84 in10.0 miENE (70°)13.8 mphScattered Clouds
4:55 AM79.0 °F77.0 °F94 %29.84 in10.0 miENE (70°)13.8 mph0.02 inScattered Clouds
4:56 AM78.8 °F77.0 °F94 %29.84 in10.0 miENE (70°)13.8 mphMostly Cloudy
5:02 AM78.8 °F77.0 °F94 %29.85 in10.0 miENE (60°)13.8 mphScattered Clouds
5:19 AM78.8 °F77.0 °F94 %29.85 in10.0 miENE (60°)13.8 mphMostly Cloudy
5:35 AM78.8 °F77.0 °F94 %29.85 in10.0 miENE (60°)12.7 mphScattered Clouds
5:45 AM78.8 °F77.0 °F94 %29.85 in10.0 miENE (70°)12.7 mphMostly Cloudy
5:50 AM78.8 °F77.0 °F94 %29.85 in10.0 miENE (70°)11.5 mphScattered Clouds
5:55 AM79.2 °F76.6 °F92 %29.86 in10.0 miENE (60°)12.7 mphPartly Cloudy
6:03 AM78.8 °F77.0 °F94 %29.86 in10.0 miENE (70°)12.7 mphMostly Cloudy
6:11 AM78.8 °F77.0 °F94 %29.86 in10.0 miENE (70°)13.8 mphScattered Clouds
6:24 AM78.8 °F77.0 °F94 %29.86 in10.0 miENE (70°)15.0 mphMostly Cloudy
6:26 AM80.6 °F77.0 °F89 %29.86 in8.0 miENE (70°)13.8 mphRainLight Rain
6:33 AM80.6 °F77.0 °F89 %29.86 in8.0 miENE (60°)15.0 mphRainLight Rain
6:36 AM80.6 °F77.0 °F89 %29.86 in10.0 miENE (60°)15.0 mphScattered Clouds
6:55 AM79.9 °F76.8 °F90 %29.87 in10.0 miENE (70°)13.8 mph0.00 inPartly Cloudy
7:22 AM80.6 °F77.0 °F89 %29.88 in10.0 miENE (70°)12.7 mphMostly Cloudy
7:32 AM82.4 °F77.0 °F84 %29.88 in10.0 miENE (70°)17.3 mph23.0 mphScattered Clouds
7:44 AM80.6 °F77.0 °F89 %29.88 in10.0 miEast (80°)16.1 mphMostly Cloudy
7:46 AM82.4 °F77.0 °F84 %29.88 in10.0 miENE (70°)16.1 mphScattered Clouds
7:55 AM82.6 °F77.2 °F84 %29.88 in10.0 miEast (80°)16.1 mphPartly Cloudy
8:55 AM82.9 °F77.2 °F83 %29.89 in10.0 miEast (80°)16.1 mphScattered Clouds
8:59 AM82.4 °F77.0 °F84 %29.89 in10.0 miEast (80°)17.3 mphMostly Cloudy
9:04 AM84.2 °F77.0 °F79 %29.89 in10.0 miENE (70°)17.3 mphScattered Clouds
9:55 AM85.8 °F77.2 °F75 %29.89 in10.0 miENE (70°)18.4 mphPartly Cloudy
10:19 AM86.0 °F77.0 °F74 %29.89 in10.0 miENE (70°)19.6 mphMostly Cloudy
10:25 AM86.0 °F78.8 °F79 %29.89 in10.0 miEast (80°)20.7 mphScattered Clouds
10:55 AM87.1 °F78.1 °F74 %29.89 in10.0 miENE (70°)18.4 mphScattered Clouds
11:38 AM87.8 °F77.0 °F70 %29.88 in10.0 miENE (70°)19.6 mphMostly Cloudy
11:46 AM87.8 °F77.0 °F70 %29.88 in10.0 miENE (70°)17.3 mphScattered Clouds
11:53 AM86.0 °F77.0 °F74 %29.88 in10.0 miENE (70°)19.6 mphMostly Cloudy
11:55 AM85.8 °F77.7 °F77 %29.88 in10.0 miENE (70°)20.7 mphMostly Cloudy
12:01 PM86.0 °F77.0 °F74 %29.88 in10.0 miENE (70°)19.6 mphScattered Clouds
12:55 PM87.8 °F78.1 °F73 %29.86 in10.0 miENE (70°)17.3 mphScattered Clouds
12:57 PM87.8 °F78.8 °F75 %29.86 in10.0 miENE (70°)18.4 mphMostly Cloudy
1:01 PM87.8 °F78.8 °F75 %29.86 in10.0 miEast (80°)17.3 mphMostly Cloudy
1:03 PM86.0 °F78.8 °F79 %29.86 in10.0 miENE (70°)17.3 mphMostly Cloudy
1:05 PM86.0 °F78.8 °F79 %29.86 in10.0 miENE (70°)16.1 mphMostly Cloudy
1:55 PM88.0 °F78.4 °F73 %29.84 in10.0 miENE (70°)15.0 mphScattered Clouds
2:07 PM87.8 °F78.8 °F75 %29.84 in10.0 miENE (70°)15.0 mph21.9 mphMostly Cloudy
2:10 PM87.8 °F78.8 °F75 %29.84 in10.0 miEast (80°)16.1 mph21.9 mphScattered Clouds
2:11 PM87.8 °F78.8 °F75 %29.84 in10.0 miEast (80°)16.1 mphMostly Cloudy
2:22 PM87.8 °F78.8 °F75 %29.84 in10.0 miENE (70°)16.1 mphScattered Clouds
2:28 PM87.8 °F78.8 °F75 %29.84 in10.0 miENE (70°)17.3 mphMostly Cloudy
2:51 PM87.8 °F77.0 °F70 %29.84 in10.0 miENE (70°)19.6 mphMostly Cloudy
2:55 PM87.4 °F77.9 °F73 %29.84 in10.0 miEast (80°)15.0 mphMostly Cloudy
2:57 PM87.8 °F78.8 °F75 %29.83 in10.0 miEast (80°)15.0 mphScattered Clouds
3:55 PM86.0 °F77.0 °F74 %29.83 in10.0 miEast (90°)16.1 mph21.9 mphScattered Clouds
4:54 PM86.0 °F77.0 °F74 %29.83 in10.0 miEast (90°)11.5 mphMostly Cloudy
4:55 PM85.1 °F77.4 °F78 %29.83 in10.0 miEast (90°)12.7 mphMostly Cloudy
4:59 PM86.0 °F77.0 °F74 %29.83 in10.0 miEast (90°)16.1 mphScattered Clouds
5:55 PM83.8 °F76.5 °F78 %29.84 in10.0 miEast (90°)15.0 mphScattered Clouds
6:55 PM81.9 °F77.2 °F86 %29.85 in10.0 miEast (80°)13.8 mphScattered Clouds
7:45 PM82.4 °F77.0 °F84 %29.86 in10.0 miEast (80°)13.8 mphMostly Cloudy
7:55 PM81.5 °F76.3 °F84 %29.86 in10.0 miENE (70°)15.0 mphMostly Cloudy
8:28 PM80.6 °F75.2 °F84 %29.87 in10.0 miEast (80°)13.8 mphScattered Clouds
8:55 PM81.3 °F76.1 °F84 %29.88 in10.0 miENE (70°)17.3 mphScattered Clouds
8:58 PM80.6 °F75.2 °F84 %29.88 in10.0 miEast (80°)16.1 mphMostly Cloudy
9:00 PM80.6 °F75.2 °F84 %29.88 in10.0 miEast (80°)15.0 mphScattered Clouds
9:55 PM81.0 °F76.5 °F86 %29.89 in10.0 miENE (70°)11.5 mphPartly Cloudy
10:30 PM80.6 °F77.0 °F89 %29.89 in10.0 miENE (70°)12.7 mphMostly Cloudy
10:34 PM80.6 °F77.0 °F89 %29.89 in10.0 miENE (70°)13.8 mphScattered Clouds
10:41 PM80.6 °F77.0 °F89 %29.90 in10.0 miENE (60°)16.1 mphMostly Cloudy
10:55 PM81.3 °F76.6 °F86 %29.90 in10.0 miENE (60°)13.8 mphMostly Cloudy
11:00 PM80.6 °F77.0 °F89 %29.89 in10.0 miENE (70°)12.7 mphScattered Clouds
11:31 PM80.6 °F77.0 °F89 %29.89 in10.0 miEast (80°)16.1 mphMostly Cloudy
11:32 PM80.6 °F77.0 °F89 %29.89 in10.0 miEast (80°)15.0 mphScattered Clouds
11:43 PM80.6 °F77.0 °F89 %29.89 in10.0 miENE (70°)13.8 mphMostly Cloudy
11:54 PM80.6 °F75.2 °F84 %29.89 in10.0 miENE (70°)11.5 mphScattered Clouds
11:55 PM80.8 °F76.1 °F86 %29.89 in10.0 miENE (70°)12.7 mphScattered Clouds
Hourly data recorded from PGUA, located miles away from Inarajan, Guam







STORIES FROM OUR PARTNERS